• Join FlightAware (Why Join?)
  • Login
  • US Flag 
03:16PM EDT


 

Airport Tracker/Info


-or-


 

Live Flight TrackerFlight Track Log ✈ UAL4234 ✈ 07-Apr-2013 ✈ KIAH - KLFT

Flight Track Log - Related Links

Times and Time Zones

All times are in EDT time to prevent confusion due to time zone crossing. See the UAL4234 flight status page for this flight to view local times or setup timezone preferences in your user account.

Time Position Orientation Groundspeed Altitude Reporting Facility
EDT Latitude Longitude Course Direction KTS MPH feet Rate Location/Type
11:29AM 29.9617 -95.3436 90° East 163 188 1,000  Level Houston Center
11:30AM 29.9472 -95.2778 104° East 243 280 3,100 1,560 Climbing Houston Center
11:31AM 29.9381 -95.2253 101° East 230 265 4,000 480 Climbing Houston Center
11:32AM 29.9834 -94.8838 90° East  Level FlightAware Approximate
11:32AM 29.9428 -95.1167 87° East 259 298 4,100  Level Houston Center
11:33AM 29.9834 -94.7714 90° East  Level FlightAware Approximate
11:33AM 29.9486 -95.0578 83° East 258 297 5,600  Level Houston Center
11:34AM 29.9833 -94.6590 90° East  Level FlightAware Approximate
11:34AM 29.9569 -94.9447 85° East 287 330 9,200  Level Houston Center
11:35AM 29.9653 -94.8467 84° East 300 345 10,700 1,320 Climbing Houston Center
11:36AM 29.9736 -94.7297 85° East 351 404 12,000 1,560 Climbing Houston Center
11:37AM 29.9844 -94.6083 84° East 376 433 14,000 1,980 Climbing Houston Center
11:38AM 29.9897 -94.4764 87° East 380 437 16,100 1,740 Climbing Houston Center
11:39AM 29.9953 -94.3533 87° East 383 441 17,600 1,140 Climbing Houston Center
11:40AM 30.0067 -94.2225 84° East 408 470 18,500 660 Climbing Houston Center
11:41AM 30.0244 -94.0850 81° East 431 496 19,000 240 Climbing Houston Center
11:42AM 30.0450 -93.9161 82° East 444 511 19,000  Level Houston Center
11:43AM 30.0608 -93.7806 82° East 435 501 19,000  Level Houston Center
11:44AM 30.0772 -93.6467 82° East 428 493 19,000  Level Houston Center
11:45AM 30.0931 -93.5058 83° East 447 514 19,000  Level Houston Center
11:46AM 30.1131 -93.3364 82° East 453 521 19,000  Level Houston Center
11:47AM 30.1294 -93.1964 82° East 448 516 19,000 -60 Level Houston Center
11:48AM 30.1431 -93.0561 84° East 444 511 18,900 -720 Descending Houston Center
11:49AM 30.1506 -92.9164 86° East 441 507 17,600 -1,320 Descending Houston Center
11:50AM 30.1575 -92.7803 87° East 428 493 16,200 -1,680 Descending Houston Center
11:51AM 30.1639 -92.6275 87° East 402 463 14,200 -2,100 Descending Houston Center
11:52AM 30.1711 -92.5025 86° East 393 452 11,900 -2,160 Descending Houston Center
11:53AM 30.1783 -92.3981 85° East 337 388 9,700 -2,100 Descending Houston Center
11:55AM 30.2075 -92.3103 69° East 293 337 7,600 -2,400 Descending Houston Center
11:56AM 30.2556 -92.2414 51° Northeast 279 321 4,800 -2,580 Descending Houston Center
11:57AM 30.3014 -92.1817 48° Northeast 272 313 2,300 -2,460 Descending Houston Center